sat.trackr.live / text

‹ back to catalog

STARLINK-11151 [DTC]

NORAD 60049 · 2024-112M

PAYLOAD ACTIVE UNKNOWN

§ Identity

Operator
Country
US
Launch date
2024-06-08
Launch site
AFWTR
Launch vehicle
Mass (kg)
RCS (m²)

Purposes: comms

External: N2YO · Heavens-Above · Gunter

§ Orbital elements

Epoch: 2026-05-24T16:58:14.749824Z

Period
91.74 min
Inclination
53.1590°
Eccentricity
0.0001249
Mean motion
15.69701026 rev/d
Perigee alt
358.9 km
Apogee alt
360.6 km
Semi-major
6,737.9 km
B*
6.1369e-6
RAAN
251.2899°
Arg perigee
79.9623°
Mean anomaly
280.1536°
Rev number
11,292

§ Raw data

STARLINK-11151 [DTC]1 60049U 24112M   26144.70711516  .00000154  00000+0  61369-5 0  99932 60049  53.1590 251.2899 0001249  79.9623 280.1536 15.69701026112929

JSON: /api/v1/satellites/60049 · /tle

For live sub-satellite position, see the globe view (requires WebGL).

§ Visibility from observer

Set your observer location to see the next 7 days of passes ≥ 10°. The values pass through the URL so the page stays shareable.

No JS? Fill the form by hand. The geolocation button needs JavaScript.